User: anonymous   Login
Location: Unspecified
(0.0000°N, 0.0000°E)
Time: 19:45:01
(UTC+00:00)
Language:

PRISMA - Orbit

View from above orbital plane
View from above orbital plane
View from above satellite
View from above satellite

Ground track
Ground track

The orbit data is extracted from the following two-line orbital elements,

1 36599U 10028B   17269.57886155  .00000058  00000-0  23949-4 0  9997
2 36599  98.3733 117.4899 0056544  14.5934 345.6889 14.55949138385352
Epoch (UTC): 26 September 2017 13:53:33
Eccentricity: 0.0056544
inclination: 98.3733°
perigee height: 666 km
apogee height: 746 km
right ascension of ascending node: 117.4899°
argument of perigee: 14.5934°
revolutions per day: 14.55949138
mean anomaly at epoch: 345.6889°
orbit number at epoch: 38535

The dashed part of the orbit path shows where the satellite is in the earth's shadow,  

DLR